Flag for U.S.A. Weather past 2 weeks in Walnut Creek, California, U.S.A.

Now
64 °F

Sunny.


Feels Like: 64 °F
Forecast: 49 / 70 °F
Wind: 13 mph from Northwest

Location: Buchanan Field

Current Time: Apr 1, 2015 at 7:08:56 PM

Latest Report: Apr 1, 2015 at 5:53 PM


Visibility: 10 mi

Pressure: 30.01 "Hg

Humidity: 37%

Dew point: 37 °F

Location of Walnut CreekLocation

Historic Weather in Walnut Creek — Graph

°F

Walnut Creek temperature yesterday

Maximum temperature yesterday: 71 °F (at 2:53 PM)
Minimum temperature yesterday: 55 °F (at 3:53 AM)
Average temperature yesterday: 62 °F

Past Weeks' High & Low Weather Summary

 TemperatureHumidityPressure
High82 °F (Mar 29, 1:53 PM)93% (Mar 23, 5:53 AM)30.27 "Hg (Mar 23, 5:53 AM)
Low45 °F (Apr 1, 6:53 AM)20% (Mar 19, 12:53 PM)29.92 "Hg (Mar 19, 6:53 PM)
Average62 °F59%30.08 "Hg
* Reported Mar 17 5:53 PM — Apr 1 5:53 PM, Walnut Creek, Weather by CustomWeather, © 2015

Note: Actual official high and low records may vary slightly from our data, if they occured in-between our weather recording intervals... More about our weather records

Advertising

Walnut Creek weather history for previous 24 hours

 ConditionsComfort  
Time TempWeatherWind HumidityBarometerVisibility
5:53 PM
Wed, Apr 1
64 °FSunny.13 mph37%30.01 "Hg10 mi
4:53 PM66 °FSunny.15 mph34%30.02 "Hg10 mi
3:53 PM68 °FSunny.12 mph27%30.03 "Hg10 mi
2:53 PM67 °FSunny.12 mph20%30.05 "Hg10 mi
1:53 PM66 °FSunny.7 mph20%30.07 "Hg10 mi
12:53 PM65 °FSunny.12 mph23%30.09 "Hg10 mi
11:53 AM64 °FPartly sunny.9 mph28%30.11 "Hg10 mi
10:53 AM61 °FSunny.9 mph32%30.13 "Hg10 mi
9:53 AM58 °FSunny.6 mph38%30.14 "Hg10 mi
8:53 AM53 °FSunny.5 mph52%30.14 "Hg10 mi
7:53 AM48 °FSunny.7 mph66%30.14 "Hg10 mi
6:53 AM45 °FClear.7 mph71%30.13 "Hg10 mi
5:53 AM46 °FClear.5 mph71%30.12 "Hg10 mi
4:53 AM48 °FClear.5 mph66%30.13 "Hg10 mi
3:53 AM50 °FClear.6 mph61%30.13 "Hg10 mi
2:53 AM51 °FClear.No wind61%30.14 "Hg10 mi
1:53 AM51 °FClear.6 mph61%30.15 "Hg10 mi
12:53 AM54 °FClear.8 mph57%30.16 "Hg10 mi
11:53 PM
Tue, Mar 31
55 °FClear.5 mph57%30.15 "Hg10 mi
10:53 PM56 °FClear.8 mph58%30.14 "Hg10 mi
9:53 PM58 °FClear.9 mph51%30.12 "Hg10 mi
8:53 PM61 °FClear.13 mph44%30.10 "Hg10 mi
7:53 PM63 °FSunny.15 mph40%30.07 "Hg10 mi
Weather by CustomWeather, © 2015

See weather overviewHow to use our weather pages